Location: Beaver Brook Station
(42.3793°N, 71.2203°W)
Time: 06:36:10
(UTC+00:00)

CZ-4 R/B - Pass Details

Date: 29 October 2020
Orbit: 531 x 599 km, 97.7° (Epoch: 23 November)

Event Time Altitude Azimuth Distance (km) Brightness Sun altitude
Rises 23:45:52 0° 183° (S) 2,698 4.9 -23.5°
Reaches altitude 10° 23:48:05 10° 191° (SSW) 1,801 4.0 -23.9°
Maximum altitude 23:51:45 39° 262° (W) 816 2.6 -24.6°
Drops below altitude 10° 23:55:23 10° 332° (NNW) 1,794 4.3 -25.3°
Sets 23:57:36 0° 340° (NNW) 2,687 5.1 -25.7°
